Home   Weather   Cupertino   Past weeks

Flag for USA Past Weather in Cupertino, California, USA — Yesterday and Last 2 Weeks

Now
55 °F

Clear.


Feels Like: 55 °F
Forecast: 53 / 69 °F
Wind: No wind

Location: Moffett Field

Current Time: Oct 1, 2016 at 3:29:44 AM

Latest Report: Oct 1, 2016 at 2:56 AM


Visibility: 10 mi

Pressure: 30.15 "Hg

Humidity: 77%

Dew Point: 48 °F

Location of CupertinoLocation

Past Weather in Cupertino — Graph

°F

Cupertino Temperature Yesterday

Maximum temperature yesterday: 70 °F (at 2:56 PM)
Minimum temperature yesterday: 56 °F (at 12:56 AM)
Average temperature yesterday: 61 °F

High & Low Weather Summary for the Past Weeks

 TemperatureHumidityPressure
High95 °F (Sep 26, 3:56 PM)87% (Sep 17, 5:56 AM)30.17 "Hg (Sep 17, 5:56 AM)
Low52 °F (Sep 23, 5:56 AM)15% (Sep 27, 1:56 PM)29.83 "Hg (Sep 27, 5:56 PM)
Average68 °F60%30.00 "Hg
* Reported Sep 16 1:56 AM — Oct 1 1:56 AM, Cupertino, Weather by CustomWeather, © 2016

Note: Actual official high and low records may vary slightly from our data, if they occured in-between our weather recording intervals... More about our weather records

Advertising

Cupertino Weather History for the Previous 24 Hours

Scroll right to see more
 ConditionsComfort  
Time TempWeatherWind HumidityBarometerVisibility
1:56 AM
Sat, Oct 1
57 °FClear.5 mph78%30.15 "Hg10 mi
12:56 AM57 °FClear.No wind72%30.14 "Hg10 mi
11:56 PM
Fri, Sep 30
57 °FClear.No wind72%30.14 "Hg10 mi
10:56 PM58 °FClear.6 mph72%30.14 "Hg10 mi
9:56 PM59 °FClear.7 mph69%30.12 "Hg10 mi
8:56 PM60 °FClear.6 mph67%30.11 "Hg10 mi
7:56 PM60 °FClear.6 mph65%30.11 "Hg10 mi
6:56 PM62 °FClear.8 mph56%30.11 "Hg10 mi
5:56 PM65 °FSunny.9 mph51%30.10 "Hg10 mi
4:56 PM67 °FSunny.14 mph44%30.10 "Hg10 mi
3:56 PM68 °FSunny.9 mph40%30.11 "Hg10 mi
2:56 PM70 °FSunny.18 mph39%30.11 "Hg10 mi
1:56 PM68 °FSunny.13 mph40%30.12 "Hg10 mi
12:56 PM68 °FSunny.20 mph42%30.14 "Hg10 mi
11:56 AM67 °FSunny.9 mph49%30.15 "Hg10 mi
10:56 AM64 °FSunny.8 mph56%30.16 "Hg10 mi
9:56 AM61 °FScattered clouds.No wind62%30.16 "Hg10 mi
9:04 AM58 °FScattered clouds.5 mph70%30.15 "Hg10 mi
8:56 AM57 °FPartly sunny.5 mph72%30.16 "Hg10 mi
7:56 AM56 °FOvercast.6 mph77%30.15 "Hg10 mi
6:56 AM56 °FOvercast.5 mph81%30.14 "Hg10 mi
5:56 AM56 °FOvercast.No wind81%30.13 "Hg10 mi
4:56 AM57 °FOvercast.6 mph81%30.12 "Hg10 mi
3:56 AM57 °FOvercast.No wind81%30.11 "Hg10 mi
Weather by CustomWeather, © 2016

See weather overviewHow to use our weather pages